Probability
0 0 0 0 0 0 0 0 0 0 0 0 0 0 0 0 0 0 0 0 1 2 2 2 2 1 0 0 0 0 1 2 2 1 0 0 0 0 0 0 0 0 0
0 0 0 0 0 0 0 0 0 0 0 0 0 0 0 0 0 0 0 0 1 2 1 2 2 1 0 0 0 0 0 1 1 0 0 0 0 0 0 0 0 0 1
0 0 0 0 0 0 0 0 0 0 0 0 0 0 0 0 0 0 0 0 1 1 0 1 1 1 0 0 0 0 0 0 0 0 0 0 0 0 0 0 0 0 1
0 0 0 0 0 0 0 0 0 0 0 0 0 0 0 0 0 0 0 0 0 0 0 0 0 0 0 0 0 0 0 0 0 0 0 0 0 0 0 0 0 0 1
0 0 0 0 0 0 0 0 0 0 0 0 0 0 0 0 0 0 0 0 0 0 0 0 0 0 0 0 0 0 0 0 1 0 0 0 0 0 0 0 0 0 0
0 0 0 0 0 0 0 0 0 1 0 0 0 0 0 0 0 0 0 0 0 0 0 0 0 0 0 0 0 0 0 0 0 0 0 0 0 0 0 0 0 0 0
0 0 0 0 0 0 0 0 0 0 0 0 0 0 0 0 0 0 0 0 0 0 0 0 0 0 0 0 1 1 1 0 0 0 0 0 0 0 0 0 0 0 0
0 0 0 0 0 0 0 0 0 0 0 0 0 0 0 0 1 1 0 0 0 0 0 0 0 0 0 1 1 2 2 1 0 0 0 0 0 0 0 0 0 0 0
0 0 0 0 0 0 0 0 0 0 0 0 0 0 0 0 1 1 0 0 0 0 0 0 0 0 1 2 3 3 2 1 0 0 0 0 0 0 0 0 1 1 0
0 0 0 0 0 0 0 0 0 0 0 0 0 0 0 0 0 0 0 0 0 0 0 0 0 0 1 2 3 3 1 0 0 0 0 0 0 0 0 1 2 2 1
0 0 0 0 0 0 0 0 0 0 0 0 0 0 0 0 0 0 0 0 0 0 0 0 0 0 1 2 3 2 1 0 0 0 0 0 0 0 1 2 3 2 1
0 0 0 0 0 0 0 0 0 0 0 0 0 0 0 0 0 0 0 0 0 0 0 0 0 1 1 1 2 1 0 0 0 0 0 0 0 1 2 3 2 2 2
0 0 0 0 0 0 0 0 0 0 0 0 0 0 0 0 0 0 0 0 0 0 0 0 0 0 0 0 0 0 0 0 0 0 0 0 0 1 2 2 1 1 2
0 0 0 0 0 0 0 0 0 0 0 0 0 0 0 0 0 0 0 0 0 0 0 0 0 0 0 0 0 0 0 0 0 0 0 0 0 1 1 1 1 1 2
0 0 0 0 0 0 0 0 0 0 0 0 0 0 0 0 0 0 0 0 0 0 0 0 0 0 0 0 0 0 0 0 0 0 0 0 0 0 0 0 0 1 1
0 0 0 0 0 0 0 0 0 0 0 0 0 0 0 0 0 0 0 0 0 0 0 0 0 0 0 0 0 0 0 0 1 1 0 0 0 0 0 0 0 0 0
0 0 0 0 0 0 0 0 0 0 0 0 0 0 0 0 0 0 0 0 0 0 0 0 0 0 0 0 0 0 0 0 1 1 1 1 0 0 0 0 0 0 0
0 0 0 0 0 0 0 0 0 0 0 0 0 0 0 0 0 0 0 0 0 0 0 0 0 0 0 0 0 0 0 0 0 1 1 1 0 0 0 0 0 0 0
0 0 0 0 0 0 0 0 0 0 0 0 0 0 0 0 0 0 0 0 0 0 0 0 0 0 0 0 0 0 0 0 0 0 1 1 0 0 0 0 0 0 0
0 0 0 0 0 0 0 0 0 0 0 0 0 0 0 0 0 0 0 0 0 0 0 0 0 0 0 0 0 0 0 0 0 0 0 0 0 0 0 0 0 0 0
0 0 0 0 0 0 0 0 0 0 0 0 0 0 0 0 0 0 0 0 0 0 0 0 0 0 0 0 0 0 0 0 0 0 0 0 0 0 0 0 0 0 0
0 0 0 0 0 0 0 0 0 0 0 0 0 0 0 0 0 0 0 0 0 0 0 0 0 0 0 0 0 0 0 0 0 0 0 0 0 0 0 0 0 0 0
0 0 0 0 0 0 0 0 0 0 0 0 0 0 0 0 0 0 0 0 0 0 0 0 0 0 0 0 0 0 0 0 0 0 0 0 0 0 0 0 0 0 0
0 0 0 0 0 0 0 0 0 0 0 0 0 0 0 0 0 0 0 0 0 0 0 0 0 0 0 0 0 0 0 0 0 0 0 0 0 0 0 0 0 0 0
0 0 0 0 0 0 0 0 0 0 0 0 0 0 0 0 0 0 0 0 0 0 0 0 0 0 0 0 0 0 0 0 0 0 0 0 0 0 0 0 0 0 0
0 0 0 0 0 0 0 0 0 0 0 0 0 0 0 0 0 0 0 0 0 0 0 0 0 0 0 0 0 0 0 0 0 0 0 0 0 0 0 0 0 0 0
Wind_Speed
2 2 1 4 5 6 7 7 8 8 8 9 10 10 10 10 11 11 10 10 9 8 8 9 9 9 8 8 8 8 8 7 7 7 6 5 6 6 6 6 5 3 6
1 0 3 5 6 6 7 7 8 8 8 9 9 9 10 10 11 11 10 10 10 10 10 9 9 9 8 9 8 8 8 7 7 7 6 5 5 6 6 6 5 4 6
1 1 2 5 6 6 7 7 8 8 8 9 9 9 10 10 10 10 10 10 10 11 10 10 10 9 10 9 8 8 8 7 7 7 6 4 3 5 5 5 5 6 5
2 2 2 5 6 7 7 7 7 8 8 9 9 9 9 10 10 10 10 10 10 10 10 10 10 10 10 10 9 9 9 8 8 7 4 3 2 5 4 5 5 5 5
3 2 2 5 7 7 7 7 7 7 8 8 8 9 9 9 9 9 10 10 10 10 11 11 10 11 11 10 10 9 9 9 9 7 4 3 2 4 5 5 5 5 5
3 2 2 5 7 7 7 7 8 8 8 8 8 8 9 9 9 9 9 10 10 10 10 11 11 11 10 10 10 10 10 9 7 4 4 3 2 4 4 4 5 5 5
2 2 2 5 6 7 7 7 8 8 8 8 8 8 8 9 9 9 9 9 10 10 10 11 10 10 10 10 10 10 10 9 5 4 3 3 3 5 5 5 5 5 5
3 2 2 5 6 6 7 7 8 8 8 8 8 8 9 9 9 9 9 10 10 10 10 10 11 11 11 11 11 11 11 9 6 4 3 2 4 5 5 5 5 6 6
3 3 2 3 4 6 7 7 7 8 8 8 8 8 8 9 9 9 9 10 10 11 11 12 12 12 12 12 12 12 11 11 5 3 3 2 4 6 6 6 6 6 6
3 2 2 3 3 3 4 6 7 7 8 8 8 8 9 9 9 9 8 10 10 11 12 12 12 12 12 12 12 12 12 9 5 4 3 3 7 7 7 6 7 7 6
2 2 2 2 3 3 3 4 5 6 7 7 7 8 7 5 5 5 8 10 10 10 11 11 12 12 12 11 12 12 9 4 5 4 3 7 9 9 9 8 8 8 8
2 1 1 1 2 2 2 3 3 3 4 4 4 4 4 4 4 5 8 10 10 10 10 11 12 11 8 5 7 9 4 5 4 4 4 9 10 10 10 10 9 8 8
3 2 2 1 2 2 2 2 2 2 2 3 4 4 3 3 3 4 3 5 5 7 5 7 7 5 5 4 4 4 5 5 4 4 5 10 10 11 11 10 10 9 9
2 2 2 2 2 2 2 2 2 1 2 2 2 3 3 2 3 3 3 3 3 3 3 4 3 4 5 5 5 5 6 4 4 3 4 10 10 10 10 10 10 10 10
4 3 3 3 3 2 2 1 2 1 1 1 1 2 3 2 2 2 2 2 3 3 3 3 3 4 4 5 5 6 5 5 5 5 4 10 10 10 10 10 10 10 10
4 4 3 3 4 4 2 2 1 1 1 1 1 1 2 2 2 2 2 2 2 2 2 3 3 3 3 4 5 5 5 5 5 6 5 6 10 10 10 10 10 10 10
5 4 4 4 4 4 3 3 2 2 2 1 1 1 1 2 2 2 2 2 2 2 3 3 3 3 4 4 5 5 4 5 5 6 6 5 5 9 10 10 9 9 9
4 4 4 4 5 4 3 2 2 2 2 1 1 1 1 2 2 2 2 2 2 2 2 3 2 3 3 3 3 3 4 4 5 5 5 5 5 5 7 10 10 9 9
5 5 5 4 5 4 4 3 2 2 2 1 1 1 1 2 2 2 2 2 2 2 2 2 2 2 2 3 3 3 4 4 4 5 5 5 5 5 5 8 10 10 9
3 4 5 4 4 4 3 3 2 1 1 1 1 1 1 1 2 2 2 2 2 3 2 2 3 3 2 2 3 4 3 3 3 4 4 4 4 5 5 6 6 7 10
2 3 4 5 4 4 3 3 2 1 1 0 0 1 1 2 2 3 2 2 2 2 2 3 3 3 2 2 3 3 3 3 3 3 3 3 4 4 5 5 4 4 5
3 3 3 4 4 4 3 3 2 2 1 1 0 1 1 2 2 2 3 2 2 2 3 3 3 2 1 1 2 2 2 3 3 3 3 3 3 3 4 5 4 4 4
3 4 4 4 4 4 4 3 3 3 2 1 1 0 0 1 2 2 3 3 2 2 2 2 3 3 2 1 2 3 2 1 2 3 3 3 3 3 3 3 4 4 4
4 3 3 3 3 3 4 4 4 3 2 2 1 0 0 1 1 2 2 3 3 2 2 2 2 2 3 1 1 2 2 2 2 1 3 3 3 3 3 3 3 3 4
3 3 3 4 3 3 4 5 5 3 2 1 1 1 0 1 1 1 2 2 2 2 2 2 2 2 2 2 2 1 2 2 1 2 1 2 2 2 2 2 2 3 3
2 2 3 4 4 3 4 4 5 5 4 3 2 1 0 0 0 0 1 1 2 1 2 2 2 3 2 2 2 2 2 2 2 2 1 1 1 2 2 2 2 2 2
Wind_Direction
281 287 22 81 75 79 81 82 81 80 78 76 75 76 77 78 77 77 78 76 73 79 86 88 88 89 89 92 96 95 92 89 84 83 90 99 103 106 110 110 105 97 100
191 297 86 83 81 81 82 84 83 80 79 77 76 78 79 79 78 76 77 76 74 78 84 83 84 86 85 88 92 92 89 86 81 79 79 76 86 97 107 110 111 102 103
105 62 78 84 85 84 85 86 85 81 80 80 79 80 80 79 78 78 78 76 75 77 79 79 79 80 80 82 85 88 87 84 81 76 68 50 61 79 95 105 103 102 103
110 82 87 89 85 83 85 84 83 83 80 80 79 78 80 81 80 80 77 76 76 76 78 77 76 78 78 80 82 83 82 80 76 69 60 49 47 68 78 92 96 99 96
90 75 83 93 88 86 85 85 83 82 81 82 81 80 79 79 80 80 78 77 76 75 75 74 75 77 76 77 81 81 79 75 67 56 48 45 42 68 72 76 80 86 89
88 70 79 93 89 86 84 83 85 82 80 81 80 80 79 79 78 77 75 78 77 76 75 73 72 73 73 75 77 77 74 70 60 51 45 41 47 72 80 79 79 83 84
97 68 71 90 87 85 84 86 85 85 84 81 80 79 79 79 79 79 76 74 75 75 74 72 72 73 73 74 74 72 70 66 57 48 40 39 52 62 73 79 83 84 85
104 79 62 81 80 81 84 86 85 84 84 83 80 76 74 76 76 75 74 73 75 75 73 72 73 72 73 73 70 68 65 59 52 47 43 40 60 61 63 74 82 84 82
86 78 58 56 65 73 78 79 81 80 79 79 79 75 72 71 71 69 68 72 77 76 73 74 74 73 74 72 67 65 60 52 43 37 45 46 64 63 67 77 84 83 81
72 67 64 59 57 54 59 75 79 79 77 75 74 73 70 66 64 63 64 71 77 76 74 73 72 71 71 68 65 61 54 43 34 33 29 47 56 62 68 76 83 85 84
99 58 63 65 62 63 63 75 74 74 69 65 62 63 60 48 46 49 56 67 72 75 74 73 72 71 69 64 62 56 49 34 30 29 28 51 56 61 66 74 80 81 82
171 160 108 92 85 77 73 64 53 54 51 51 50 49 51 50 45 52 51 59 63 66 69 70 70 68 62 52 53 51 39 32 31 24 36 51 56 59 64 72 77 78 81
184 174 165 151 118 103 82 78 59 55 55 49 49 54 57 53 45 43 42 43 48 55 54 59 59 52 53 51 49 44 38 34 25 18 29 48 55 59 59 65 70 73 79
166 184 176 158 135 128 109 97 92 76 70 60 49 62 68 61 53 49 48 42 45 49 55 54 60 56 58 55 54 50 42 37 28 17 26 46 55 58 59 60 66 72 79
181 189 183 162 151 146 129 126 111 101 88 80 62 63 80 83 72 62 54 52 52 56 62 63 64 63 61 57 54 52 44 40 36 31 23 41 49 53 57 61 63 68 73
187 190 177 165 160 151 149 148 139 132 113 95 87 83 95 99 91 82 70 63 62 66 69 74 73 70 62 61 56 50 44 41 40 36 31 31 38 44 51 57 61 64 68
191 186 172 172 160 157 160 162 151 142 133 131 130 117 113 109 108 101 90 78 76 81 81 75 65 67 68 62 53 48 45 39 40 36 32 29 27 35 43 49 53 60 65
183 179 175 170 157 158 159 155 142 138 138 147 141 134 131 125 122 110 101 89 85 89 85 85 72 71 64 63 55 42 39 34 34 35 34 32 29 28 31 37 41 51 58
181 177 172 165 155 159 153 140 137 131 133 137 125 121 132 136 131 119 114 101 96 91 83 90 75 86 84 69 67 50 37 33 28 33 33 33 31 31 27 28 33 38 46
164 167 169 165 158 148 130 117 108 96 104 108 114 137 138 130 128 119 112 108 107 103 83 85 88 71 85 82 73 58 40 33 35 30 26 28 30 33 33 30 26 28 37
138 152 163 163 161 141 134 142 144 164 179 121 134 160 145 128 128 125 119 113 114 118 120 110 99 84 62 66 72 45 24 31 40 32 24 28 28 27 31 32 30 28 22
162 166 167 171 163 161 161 155 146 139 143 151 148 105 123 119 124 129 130 133 127 117 111 110 107 97 66 63 97 85 25 1 9 22 20 28 22 22 29 30 30 31 23
175 185 180 176 168 166 150 125 105 83 59 40 31 43 47 132 139 137 143 140 139 139 144 145 136 123 124 51 76 122 124 228 324 344 8 22 21 22 16 17 25 25 25
195 181 164 160 158 161 148 146 146 151 165 195 184 181 42 97 122 130 140 143 146 143 153 165 145 137 130 121 67 66 114 148 138 333 341 359 14 21 11 9 9 12 17
186 168 161 149 153 154 157 161 154 154 157 133 116 102 55 26 60 118 141 141 146 153 163 157 135 131 132 139 139 123 95 73 100 142 290 327 351 354 357 354 355 360 4
137 138 145 155 166 160 159 163 163 162 150 136 138 146 126 9 347 321 139 144 160 168 171 165 150 144 140 130 132 136 146 151 168 155 186 272 312 317 334 344 349 344 345